Regional Weather Roundup
Issued by NWS

Home | Current Version | Previous Version | Text Only | Print | Product List | Glossary Off
Versions: 1 2 3 4 5 6 7 8 9 10 11 12 13 14 15 16 17 18 19 20 21 22 23 24 25 26 27 28 29 30 31 32 33 34 35 36 37 38 39 40 41 42 43 44 45 46 47 48 49 50

230
ASUS43 KLMK 290910
RWRKY
KENTUCKY REGIONAL WEATHER ROUNDUP
NATIONAL WEATHER SERVICE LOUISVILLE KY
500 AM EDT MON AUG 29 2016

NOTE "FAIR" INDICATES FEW OR NO CLOUDS BELOW 12,000 FEET
WITH NO SIGNIFICANT WEATHER AND/OR OBSTRUCTIONS TO VISIBILITY.

KYZ001>023-026-027-061>063-070>075-291000-
WESTERN AND SOUTH CENTRAL KENTUCKY

CITY           SKY/WX    TMP DP  RH WIND       PRES   REMARKS
PADUCAH        CLEAR     72  70  93 N3        30.09S
HENDERSON      CLEAR     72  66  83 E3        30.12S
OWENSBORO      CLEAR     74  71  90 CALM      30.14S
HOPKINSVILLE   CLEAR     72  69  92 NE8       30.11S
BOWLING GREEN  CLEAR     71  69  93 CALM      30.13F
GLASGOW        CLEAR     69  69 100 CALM      30.14S
$$

KYZ024-025-028>034-038-045-046-053-291000-
NORTH CENTRAL KENTUCKY

CITY           SKY/WX    TMP DP  RH WIND       PRES   REMARKS
LOUISVILLE/SDF PTCLDY    73  69  87 NE5       30.16R
LOUISVILLE/LOU CLEAR     72  68  87 CALM      30.17R
FORT KNOX      CLEAR     69  68  96 NE6       30.15R
$$

KYZ035>037-039>044-047>052-055>060-089>105-291000-
NORTHEAST KENTUCKY

CITY           SKY/WX    TMP DP  RH WIND       PRES   REMARKS
LEXINGTON      CLOUDY    70  67  90 CALM      30.18S
COVINGTON      PTCLDY    70  69  97 N5        30.19S FOG
FRANKFORT      MOCLDY    70  68  93 N5        30.17R FOG
$$

KYZ054-064>069-076>088-106>120-291000-
SOUTHEAST KENTUCKY

CITY           SKY/WX    TMP DP  RH WIND       PRES   REMARKS
JACKSON        PTCLDY    69  67  93 CALM      30.17F
LONDON         PTCLDY    69  66  90 CALM      30.16F
SOMERSET       CLOUDY    66  66 100 CALM      30.16F
MIDDLESBORO    FOG       68  68 100 CALM      30.17F VSB 1/2
MONTICELLO     MOSUNNY  N/A N/A N/A CALM      30.16F
$$





USA.gov is the U.S. government's official web portal to all federal, state and local government web resources and services.